Location: Bidwell Hollow
(37.7387°N, 90.1707°W)
Time: 23:07:58
(UTC+00:00)

Transit 2A - Pass Details

Date: 14 May 2026
Orbit: 595 x 949 km, 66.7° (Epoch: 6 June)

Event Time Altitude Azimuth Distance (km) Brightness Sun altitude
Rises 08:00:23 0° 319° (NW) 3,091 9.3 -26.6°
Reaches altitude 10° 08:03:07 10° 307° (NW) 2,110 8.3 -26.3°
Enters shadow 08:03:31 12° 304° (NW) 1,978 8.1 -26.2°
